| time (UTC) | temp F | wind direction | speed MPH | gust MPH | rain 1hr in | rain 24hr in | rain mn in | humidity % | barometer mb |
| 20260507083044 | 52 | 68 | 5.0 | 13.0 | 0.00 | 0.00 | 0.00 | 74 | 1015.9 |
| 20260507082044 | 52 | 90 | 6.0 | 14.0 | 0.00 | 0.00 | 0.00 | 73 | 1015.8 |
| 20260507081044 | 53 | 68 | 4.0 | 10.0 | 0.00 | 0.00 | 0.00 | 76 | 1015.8 |
| 20260507080024 | 51 | 68 | 6.0 | 14.0 | 0.00 | 0.00 | 0.00 | 75 | 1015.8 |
| 20260507075026 | 50 | 45 | 7.0 | 14.0 | 0.00 | 0.00 | 0.00 | 77 | 1015.7 |
| 20260507074026 | 50 | 68 | 7.0 | 13.0 | 0.00 | 0.00 | 0.00 | 77 | 1015.4 |
| 20260507073026 | 49 | 90 | 6.0 | 12.0 | 0.00 | 0.00 | 0.00 | 79 | 1015.4 |
| 20260507072026 | 48 | 90 | 7.0 | 12.0 | 0.00 | 0.00 | 0.00 | 79 | 1015.3 |
| 20260507071046 | 48 | 90 | 8.0 | 16.0 | 0.00 | 0.00 | 0.00 | 79 | 1015.2 |
| 20260507070026 | 48 | 68 | 8.0 | 13.0 | 0.00 | 0.00 | 0.00 | 80 | 1015.3 |
| 20260507065046 | 48 | 90 | 8.0 | 16.0 | 0.00 | 0.00 | 0.00 | 80 | 1015.3 |
| 20260507064026 | 48 | 90 | 5.0 | 13.0 | 0.00 | 0.00 | 0.00 | 82 | 1015.1 |
| 20260507063026 | 48 | 68 | 6.0 | 13.0 | 0.00 | 0.00 | 0.00 | 82 | 1014.9 |
| 20260507062026 | 48 | 68 | 7.0 | 11.0 | 0.00 | 0.00 | 0.00 | 82 | 1014.7 |
| 20260507061146 | 48 | 90 | 4.0 | 10.0 | 0.00 | 0.00 | 0.00 | 84 | 1014.7 |
| 20260507060026 | 46 | 68 | 4.0 | 10.0 | 0.00 | 0.00 | 0.00 | 87 | 1014.7 |
| 20260507055026 | 45 | 68 | 5.0 | 11.0 | 0.00 | 0.00 | 0.00 | 88 | 1014.5 |
| 20260507054026 | 45 | 68 | 4.0 | 10.0 | 0.00 | 0.00 | 0.00 | 88 | 1014.5 |
| 20260507053026 | 45 | 68 | 4.0 | 12.0 | 0.00 | 0.00 | 0.00 | 88 | 1014.3 |
| 20260507052026 | 45 | 68 | 6.0 | 13.0 | 0.00 | 0.00 | 0.00 | 88 | 1014.3 |
| 20260507051046 | 45 | 68 | 4.0 | 13.0 | 0.00 | 0.00 | 0.00 | 89 | 1014.1 |
| 20260507050026 | 45 | 68 | 3.0 | 9.0 | 0.00 | 0.00 | 0.00 | 89 | 1014.1 |
| 20260507045026 | 45 | 68 | 5.0 | 11.0 | 0.00 | 0.00 | 0.00 | 89 | 1013.9 |
| 20260507044026 | 45 | 68 | 3.0 | 7.0 | 0.00 | 0.00 | 0.00 | 89 | 1013.8 |
| 20260507043026 | 45 | 68 | 4.0 | 8.0 | 0.00 | 0.00 | 0.00 | 89 | 1013.6 |
| 20260507042026 | 45 | 68 | 4.0 | 10.0 | 0.00 | 0.00 | 0.00 | 89 | 1013.6 |
| 20260507041026 | 45 | 68 | 4.0 | 11.0 | 0.00 | 0.00 | 0.00 | 89 | 1013.5 |
| 20260507040025 | 45 | 68 | 5.0 | 12.0 | 0.00 | 0.00 | 0.00 | 89 | 1013.4 |
| 20260507035026 | 45 | 68 | 5.0 | 12.0 | 0.00 | 0.00 | 0.00 | 88 | 1013.4 |
| 20260507034025 | 45 | 68 | 5.0 | 10.0 | 0.00 | 0.00 | 0.00 | 88 | 1013.3 |
| 20260507033025 | 45 | 68 | 4.0 | 9.0 | 0.00 | 0.00 | 0.00 | 88 | 1013.3 |
| 20260507032025 | 45 | 68 | 3.0 | 8.0 | 0.00 | 0.00 | 0.00 | 88 | 1013.2 |
| 20260507031026 | 45 | 45 | 5.0 | 10.0 | 0.00 | 0.00 | 0.00 | 88 | 1013.1 |
| 20260507030025 | 45 | 68 | 4.0 | 11.0 | 0.00 | 0.00 | 0.00 | 88 | 1013.0 |
| 20260507025026 | 45 | 68 | 4.0 | 11.0 | 0.00 | 0.00 | 0.00 | 88 | 1013.0 |
| 20260507024025 | 45 | 68 | 2.0 | 9.0 | 0.00 | 0.00 | 0.00 | 87 | 1012.9 |
| 20260507023046 | 45 | 68 | 4.0 | 10.0 | 0.00 | 0.00 | 0.00 | 87 | 1012.8 |
| 20260507022045 | 45 | 68 | 5.0 | 10.0 | 0.00 | 0.00 | 0.00 | 87 | 1012.7 |
| 20260507021025 | 45 | 68 | 7.0 | 14.0 | 0.00 | 0.00 | 0.00 | 87 | 1012.7 |
| 20260507020026 | 45 | 68 | 6.0 | 12.0 | 0.00 | 0.00 | 0.00 | 87 | 1012.7 |
| 20260507015025 | 45 | 90 | 5.0 | 12.0 | 0.00 | 0.00 | 0.00 | 87 | 1012.6 |
| 20260507014025 | 45 | 68 | 5.0 | 13.0 | 0.00 | 0.00 | 0.00 | 86 | 1012.6 |
| 20260507013025 | 45 | 68 | 4.0 | 8.0 | 0.00 | 0.00 | 0.00 | 86 | 1012.4 |
| 20260507012025 | 45 | 90 | 3.0 | 10.0 | 0.00 | 0.00 | 0.00 | 86 | 1012.4 |
| 20260507011025 | 45 | 90 | 5.0 | 10.0 | 0.00 | 0.00 | 0.00 | 86 | 1012.4 |
| 20260507010025 | 45 | 90 | 8.0 | 15.0 | 0.00 | 0.00 | 0.00 | 86 | 1012.4 |
| 20260507005025 | 45 | 68 | 7.0 | 14.0 | 0.00 | 0.00 | 0.00 | 86 | 1012.3 |
| 20260507004125 | 45 | 68 | 8.0 | 16.0 | 0.00 | 0.00 | 0.00 | 86 | 1012.3 |
| 20260507003045 | 45 | 68 | 9.0 | 16.0 | 0.00 | 0.00 | 0.00 | 86 | 1012.3 |
| 20260507002025 | 45 | 68 | 7.0 | 14.0 | 0.00 | 0.00 | 0.00 | 87 | 1012.2 |
| 20260507001025 | 45 | 68 | 5.0 | 10.0 | 0.00 | 0.00 | 0.00 | 87 | 1012.2 |
| 20260507000025 | 45 | 68 | 4.0 | 14.0 | 0.00 | 0.00 | 0.00 | 87 | 1012.2 |
| 20260506235025 | 45 | 68 | 7.0 | 14.0 | 0.00 | 0.00 | 0.00 | 87 | 1012.2 |
| 20260506234025 | 46 | 68 | 7.0 | 13.0 | 0.00 | 0.00 | 0.00 | 87 | 1012.1 |
| 20260506233025 | 46 | 90 | 4.0 | 9.0 | 0.00 | 0.00 | 0.00 | 88 | 1012.2 |
| 20260506232025 | 46 | 68 | 5.0 | 12.0 | 0.00 | 0.00 | 0.00 | 88 | 1012.1 |
| 20260506231045 | 46 | 68 | 7.0 | 12.0 | 0.00 | 0.00 | 0.00 | 88 | 1012.0 |
| 20260506230025 | 46 | 68 | 5.0 | 10.0 | 0.00 | 0.00 | 0.00 | 88 | 1012.0 |
| 20260506225026 | 46 | 68 | 7.0 | 14.0 | 0.00 | 0.00 | 0.00 | 88 | 1012.0 |
| 20260506224025 | 46 | 68 | 8.0 | 14.0 | 0.00 | 0.00 | 0.00 | 88 | 1011.9 |
| 20260506223025 | 46 | 68 | 8.0 | 16.0 | 0.00 | 0.00 | 0.00 | 89 | 1011.7 |
| 20260506222025 | 46 | 68 | 9.0 | 16.0 | 0.00 | 0.00 | 0.00 | 89 | 1011.6 |
| 20260506221025 | 46 | 68 | 8.0 | 16.0 | 0.00 | 0.00 | 0.00 | 89 | 1011.6 |
| 20260506220025 | 46 | 68 | 7.0 | 17.0 | 0.00 | 0.00 | 0.00 | 89 | 1011.6 |
| 20260506215025 | 46 | 68 | 4.0 | 11.0 | 0.00 | 0.00 | 0.00 | 90 | 1011.5 |
| 20260506214025 | 46 | 68 | 3.0 | 9.0 | 0.00 | 0.00 | 0.00 | 89 | 1011.4 |
| 20260506213025 | 46 | 68 | 4.0 | 9.0 | 0.00 | 0.00 | 0.00 | 89 | 1011.3 |
| 20260506212045 | 46 | 68 | 8.0 | 16.0 | 0.00 | 0.00 | 0.00 | 89 | 1011.3 |
| 20260506211025 | 46 | 68 | 8.0 | 14.0 | 0.00 | 0.00 | 0.00 | 89 | 1011.3 |
| 20260506210025 | 46 | 68 | 9.0 | 15.0 | 0.00 | 0.00 | 0.00 | 89 | 1011.2 |
| 20260506205025 | 47 | 68 | 8.0 | 14.0 | 0.00 | 0.00 | 0.00 | 89 | 1011.2 |
| 20260506204025 | 47 | 68 | 7.0 | 14.0 | 0.00 | 0.00 | 0.00 | 89 | 1011.1 |
| 20260506203025 | 47 | 68 | 7.0 | 14.0 | 0.00 | 0.00 | 0.00 | 89 | 1011.1 |
| 20260506202025 | 47 | 68 | 7.0 | 13.0 | 0.00 | 0.00 | 0.00 | 89 | 1011.1 |
| 20260506201025 | 47 | 68 | 7.0 | 13.0 | 0.00 | 0.00 | 0.00 | 89 | 1011.0 |
| 20260506200045 | 47 | 68 | 6.0 | 12.0 | 0.00 | 0.00 | 0.00 | 89 | 1011.0 |
| 20260506195024 | 47 | 68 | 6.0 | 13.0 | 0.00 | 0.00 | 0.00 | 88 | 1011.0 |
| 20260506194024 | 48 | 68 | 8.0 | 16.0 | 0.00 | 0.00 | 0.00 | 88 | 1010.8 |
| 20260506193024 | 48 | 68 | 7.0 | 16.0 | 0.00 | 0.00 | 0.00 | 88 | 1010.7 |
| 20260506192024 | 49 | 68 | 4.0 | 12.0 | 0.00 | 0.00 | 0.00 | 88 | 1010.5 |
| 20260506191025 | 49 | 68 | 6.0 | 13.0 | 0.00 | 0.00 | 0.00 | 87 | 1010.4 |
| 20260506190024 | 49 | 68 | 6.0 | 15.0 | 0.00 | 0.00 | 0.00 | 86 | 1010.3 |
| 20260506185024 | 49 | 68 | 7.0 | 15.0 | 0.00 | 0.00 | 0.00 | 86 | 1010.0 |
| 20260506184024 | 49 | 68 | 8.0 | 18.0 | 0.00 | 0.00 | 0.00 | 85 | 1009.9 |
| 20260506183044 | 50 | 90 | 6.0 | 13.0 | 0.00 | 0.00 | 0.00 | 83 | 1009.9 |
| 20260506182025 | 50 | 68 | 7.0 | 17.0 | 0.00 | 0.00 | 0.00 | 82 | 1009.8 |
| 20260506181025 | 51 | 68 | 7.0 | 12.0 | 0.00 | 0.00 | 0.00 | 81 | 1009.7 |
| 20260506180025 | 51 | 68 | 6.0 | 10.0 | 0.00 | 0.00 | 0.00 | 81 | 1009.7 |
| 20260506175024 | 51 | 90 | 7.0 | 12.0 | 0.00 | 0.00 | 0.00 | 79 | 1009.6 |
| 20260506174025 | 52 | 68 | 2.0 | 10.0 | 0.00 | 0.00 | 0.00 | 79 | 1009.5 |
| 20260506173104 | 52 | 68 | 5.0 | 12.0 | 0.00 | 0.00 | 0.00 | 80 | 1009.4 |
| 20260506172024 | 52 | 68 | 5.0 | 11.0 | 0.00 | 0.00 | 0.00 | 79 | 1009.3 |
| 20260506171024 | 53 | 68 | 3.0 | 11.0 | 0.00 | 0.00 | 0.00 | 79 | 1009.2 |
| 20260506170024 | 53 | 68 | 2.0 | 7.0 | 0.00 | 0.00 | 0.00 | 79 | 1009.2 |
| 20260506165104 | 53 | 68 | 2.0 | 7.0 | 0.00 | 0.00 | 0.00 | 78 | 1009.2 |
| 20260506164024 | 53 | 68 | 2.0 | 9.0 | 0.00 | 0.00 | 0.00 | 77 | 1009.2 |
| 20260506163024 | 53 | 68 | 5.0 | 10.0 | 0.00 | 0.00 | 0.00 | 77 | 1009.1 |
| 20260506162024 | 53 | 68 | 2.0 | 9.0 | 0.00 | 0.00 | 0.00 | 79 | 1009.0 |
| 20260506161044 | 54 | 68 | 3.0 | 9.0 | 0.00 | 0.00 | 0.00 | 78 | 1009.1 |
| 20260506160044 | 54 | 68 | 2.0 | 9.0 | 0.00 | 0.00 | 0.00 | 79 | 1009.1 |
| 20260506155104 | 54 | 68 | 3.0 | 10.0 | 0.00 | 0.00 | 0.00 | 79 | 1009.0 |
| 20260506154024 | 54 | 45 | 3.0 | 8.0 | 0.00 | 0.00 | 0.00 | 79 | 1009.1 |
| 20260506153024 | 54 | 45 | 3.0 | 8.0 | 0.00 | 0.00 | 0.00 | 78 | 1009.1 |
| 20260506152024 | 54 | 68 | 3.0 | 8.0 | 0.00 | 0.00 | 0.00 | 78 | 1009.2 |
| 20260506151044 | 54 | 45 | 3.0 | 8.0 | 0.00 | 0.00 | 0.00 | 78 | 1009.2 |
| 20260506150024 | 54 | 45 | 4.0 | 11.0 | 0.00 | 0.00 | 0.00 | 78 | 1009.1 |
| 20260506145044 | 54 | 68 | 3.0 | 12.0 | 0.00 | 0.00 | 0.00 | 78 | 1009.1 |
| 20260506144024 | 54 | 68 | 3.0 | 9.0 | 0.00 | 0.00 | 0.00 | 78 | 1009.1 |
| 20260506143024 | 54 | 68 | 5.0 | 12.0 | 0.00 | 0.00 | 0.00 | 77 | 1009.1 |
| 20260506142024 | 54 | 90 | 3.0 | 9.0 | 0.00 | 0.00 | 0.00 | 77 | 1009.2 |
| 20260506141024 | 54 | 68 | 6.0 | 14.0 | 0.00 | 0.00 | 0.00 | 76 | 1009.3 |
| 20260506140024 | 54 | 68 | 6.0 | 12.0 | 0.00 | 0.00 | 0.00 | 75 | 1009.2 |
| 20260506135024 | 54 | 68 | 6.0 | 13.0 | 0.00 | 0.00 | 0.00 | 74 | 1009.2 |
| 20260506134024 | 54 | 45 | 4.0 | 11.0 | 0.00 | 0.00 | 0.00 | 74 | 1009.2 |
| 20260506133046 | 54 | 68 | 3.0 | 11.0 | 0.00 | 0.00 | 0.00 | 74 | 1009.2 |
| 20260506132025 | 54 | 68 | 5.0 | 11.0 | 0.00 | 0.00 | 0.00 | 72 | 1009.1 |
| 20260506131025 | 55 | 68 | 5.0 | 11.0 | 0.00 | 0.00 | 0.00 | 72 | 1009.2 |
| 20260506130023 | 55 | 68 | 6.0 | 11.0 | 0.00 | 0.00 | 0.00 | 72 | 1009.1 |
| 20260506125045 | 55 | 68 | 4.0 | 10.0 | 0.00 | 0.00 | 0.00 | 72 | 1009.1 |
| 20260506124025 | 55 | 45 | 5.0 | 11.0 | 0.00 | 0.00 | 0.00 | 73 | 1009.0 |
| 20260506123025 | 55 | 68 | 6.0 | 13.0 | 0.00 | 0.00 | 0.00 | 71 | 1009.0 |
| 20260506122025 | 56 | 90 | 7.0 | 13.0 | 0.00 | 0.00 | 0.00 | 70 | 1008.9 |
| 20260506121024 | 55 | 45 | 3.0 | 10.0 | 0.00 | 0.00 | 0.00 | 73 | 1008.9 |
| 20260506120025 | 55 | 68 | 4.0 | 9.0 | 0.00 | 0.00 | 0.00 | 74 | 1008.8 |
| 20260506115025 | 55 | 68 | 8.0 | 13.0 | 0.00 | 0.00 | 0.00 | 71 | 1008.8 |
| 20260506114025 | 56 | 45 | 5.0 | 13.0 | 0.00 | 0.00 | 0.00 | 74 | 1008.8 |
| 20260506113106 | 55 | 68 | 4.0 | 10.0 | 0.00 | 0.00 | 0.00 | 77 | 1008.8 |
| 20260506112025 | 54 | 23 | 3.0 | 11.0 | 0.00 | 0.00 | 0.00 | 78 | 1008.8 |
| 20260506111105 | 54 | 68 | 3.0 | 11.0 | 0.00 | 0.00 | 0.00 | 78 | 1008.8 |
| 20260506110025 | 53 | 45 | 2.0 | 9.0 | 0.00 | 0.00 | 0.00 | 80 | 1008.8 |
| 20260506105025 | 53 | 68 | 3.0 | 10.0 | 0.00 | 0.00 | 0.00 | 79 | 1008.8 |
| 20260506104025 | 52 | 23 | 2.0 | 7.0 | 0.00 | 0.00 | 0.00 | 79 | 1008.8 |
| 20260506103025 | 52 | 45 | 3.0 | 10.0 | 0.00 | 0.00 | 0.00 | 79 | 1008.8 |
| 20260506102025 | 52 | 68 | 5.0 | 10.0 | 0.00 | 0.00 | 0.00 | 79 | 1008.7 |
| 20260506101025 | 52 | 68 | 5.0 | 11.0 | 0.00 | 0.00 | 0.00 | 79 | 1008.8 |
| 20260506100025 | 52 | 45 | 2.0 | 6.0 | 0.00 | 0.00 | 0.00 | 81 | 1008.7 |
| 20260506095025 | 52 | 45 | 2.0 | 9.0 | 0.00 | 0.02 | 0.00 | 80 | 1008.7 |
| 20260506094025 | 52 | 0 | 2.0 | 7.0 | 0.00 | 0.02 | 0.00 | 80 | 1008.6 |
| 20260506093025 | 51 | 68 | 2.0 | 9.0 | 0.00 | 0.02 | 0.00 | 79 | 1008.6 |
| 20260506092025 | 51 | 45 | 4.0 | 9.0 | 0.00 | 0.02 | 0.00 | 79 | 1008.6 |
| 20260506091025 | 51 | 68 | 4.0 | 12.0 | 0.00 | 0.02 | 0.00 | 79 | 1008.5 |
| 20260506090025 | 51 | 45 | 4.0 | 11.0 | 0.00 | 0.06 | 0.00 | 79 | 1008.5 |
| 20260506085025 | 51 | 68 | 3.0 | 10.0 | 0.00 | 0.06 | 0.00 | 79 | 1008.5 |
| 20260506084025 | 50 | 45 | 2.0 | 9.0 | 0.00 | 0.06 | 0.00 | 79 | 1008.5 |